Location: Berm�dez
(10.4333°N, 66.9167°W)
Time: 18:50:08
(UTC+00:00)

Daily predictions for brighter satellites

Satellite Brightness Start Highest point End
(mag) Time Altitude Azimuth Time Altitude Azimuth Time Altitude Azimuth
Cosmos 1464 Rocket 4.3 23:01:31 10° NNE 23:07:37 48° E 23:13:39 10° SSE
Kosmos-1675 3.9 23:07:25 10° SSE 23:09:24 29° E 23:14:11 10° NE
Cosmos 332 Rocket 4.0 23:05:47 10° S 23:10:32 53° ESE 23:15:18 10° NNE
H-2A R/B 3.8 23:08:42 10° E 23:10:54 13° ENE 23:13:07 10° NE
STARLINK-1129 4.1 23:07:37 10° NW 23:11:41 61° SW 23:15:46 10° SSE
Cosmos 1943 Rocket 3.6 23:09:56 10° SE 23:12:59 15° ESE 23:16:03 10° ENE
GPS 2-14 Rocket1 4.1 23:09:51 10° W 23:13:43 38° NNW 23:17:37 10° NE
STARLINK-1134 4.3 23:12:37 10° NW 23:16:38 52° WSW 23:20:40 10° SSE
Intelsat 5-1 Rocket 3.6 23:14:02 10° W 23:17:03 21° NNW 23:19:06 10° NNE
Okean 1-7 3.2 23:17:28 10° S 23:21:45 78° W 23:26:00 10° N
STARLINK-1362 4.5 23:19:26 10° S 23:22:46 26° ESE 23:26:06 10° ENE
Meteor 1-4 Rocket 2.4 23:20:57 10° S 23:24:23 84° W 23:27:49 10° N
Intelsat 5-2 Rocket 3.4 23:21:35 10° W 23:24:25 35° NNW 23:26:38 10° NE
Geosat 4.1 23:19:36 10° SE 23:24:30 57° ENE 23:29:25 10° N
CZ-2C R/B 3.9 23:20:58 10° NE 23:25:02 21° E 23:29:04 10° SSE
GPS 2-18 Rocket1 4.1 23:23:36 10° W 23:27:12 36° SSW 23:30:25 13° SE
STARLINK-1373 4.3 23:23:45 10° S 23:27:14 29° ESE 23:30:42 10° ENE
STARLINK-1390 4.1 23:28:08 10° S 23:31:44 33° ESE 23:35:19 10° ENE
STARLINK-1320 2.9 23:29:10 10° SSW 23:32:12 55° SE 23:35:14 10° NE
STARLINK-1322 2.8 23:29:31 10° SSW 23:32:33 56° SE 23:35:36 10° NE
STARLINK-1324 2.8 23:29:48 10° SSW 23:32:51 57° SE 23:35:53 10° NE
Cosmos 1452 Rocket 4.1 23:27:43 10° SSW 23:32:54 61° WNW 23:38:06 10° N
STARLINK-1294 2.8 23:30:11 10° SSW 23:33:11 57° SE 23:36:12 10° NE
STARLINK-1261 2.8 23:30:30 10° SSW 23:33:33 58° SE 23:36:36 10° NE
STARLINK-1325 2.8 23:30:51 10° SSW 23:33:54 59° SE 23:36:57 10° NE
Cosmos 2221 Rocket 4.1 23:30:05 10° SSE 23:34:15 38° E 23:38:25 10° NNE
Cosmos 1140 Rocket 4.3 23:29:37 10° NNE 23:34:16 33° ENE 23:37:56 15° SE
STARLINK-1333 2.8 23:31:13 10° SSW 23:34:17 60° ESE 23:37:20 10° NE
Cosmos 407 Rocket 3.8 23:29:24 10° N 23:34:33 49° ENE 23:39:28 11° SSE
STARLINK-1334 2.8 23:31:30 10° SSW 23:34:33 61° SE 23:37:37 10° NE
STARLINK-1326 2.8 23:31:49 10° SSW 23:34:53 62° SE 23:37:56 10° NE
STARLINK-1323 2.8 23:32:12 10° SSW 23:35:15 63° SE 23:38:20 10° NE
STARLINK-1349 2.7 23:32:28 10° SSW 23:35:32 64° SE 23:38:36 10° NE
STARLINK-1336 2.7 23:32:49 10° SSW 23:35:53 65° SE 23:38:57 10° NE
Cosmos 1743 2.8 23:32:12 10° N 23:35:54 51° E 23:39:36 10° SSE
ATLAS 2AS CENTAUR R/B 3.7 23:29:45 10° SSE 23:35:56 28° ESE 23:42:22 10° NE
ARIANE 5 R/B 4.0 23:33:48 10° SW 23:36:10 22° SSE 23:39:17 15° ESE
Cosmos 1908 Rocket 3.6 23:31:47 10° N 23:36:11 59° E 23:40:34 10° SSE
STARLINK-1331 2.7 23:33:12 10° SSW 23:36:15 66° SE 23:39:19 10° NE
STARLINK-1344 2.7 23:33:29 10° SSW 23:36:34 67° ESE 23:39:38 10° NE
STARLINK-1343 2.7 23:33:52 10° SSW 23:36:56 68° SE 23:40:01 10° NE
STARLINK-1346 2.7 23:34:11 10° SSW 23:37:14 68° SE 23:40:17 10° NE
STARLINK-1365 3.9 23:33:49 10° SSW 23:37:37 42° ESE 23:41:25 10° NE
STARLINK-1328 2.7 23:34:35 10° SSW 23:37:39 70° SE 23:40:44 10° NE
STARLINK-1354 2.7 23:34:52 10° SSW 23:37:56 71° SE 23:41:01 10° NE
Aureole 2 Rocket 2.3 23:34:49 10° SSW 23:38:04 76° WNW 23:41:10 10° N
STARLINK-1347 2.7 23:35:10 10° SSW 23:38:15 71° ESE 23:41:19 10° NE
STARLINK-1357 2.7 23:35:35 10° SSW 23:38:40 73° ESE 23:41:44 10° NE
STARLINK-1335 2.7 23:35:52 10° SSW 23:38:57 74° SE 23:42:02 10° NE
STARLINK-1327 2.7 23:36:12 10° SSW 23:39:18 75° SE 23:42:22 10° NE
CSL-04 Debris 4.1 23:34:02 10° SSE 23:39:24 76° ENE 23:44:46 10° N
STARLINK-1340 2.7 23:36:31 10° SSW 23:39:36 76° ESE 23:42:41 10° NE
STARLINK-1356 2.7 23:36:54 10° SSW 23:39:59 77° ESE 23:43:04 10° NE
Centaur AC-119 3.7 23:23:30 10° WNW 23:40:12 86° SSW 23:43:19 19° ESE
STARLINK-1345 2.7 23:37:12 10° SSW 23:40:17 78° ESE 23:43:23 10° NE
STARLINK-1355 2.7 23:37:33 10° SSW 23:40:38 80° SE 23:43:44 10° NE
STARLINK-1321 2.7 23:37:53 10° SSW 23:40:59 81° SE 23:44:04 10° NE
Palapa 6 Rocket 3.4 23:37:25 10° SW 23:41:01 35° SSE 23:43:31 19° E
STARLINK-1358 2.7 23:38:17 10° SSW 23:41:22 82° ESE 23:44:27 10° NE
STARLINK-1332 2.7 23:38:33 10° SSW 23:41:39 83° ESE 23:44:45 10° NE
STARLINK-1348 2.7 23:38:54 10° SSW 23:41:59 84° SE 23:45:05 10° NE
STARLINK-1330 2.7 23:39:14 10° SSW 23:42:19 85° SE 23:45:25 10° NE
STARLINK-1363 2.7 23:39:33 10° SSW 23:42:39 86° SE 23:45:45 10° NE
Cosmos 2297 3.8 23:37:09 10° SSW 23:42:46 82° WNW 23:48:27 10° NNE
STARLINK-1337 2.7 23:39:56 10° SW 23:43:02 88° ESE 23:46:07 10° NE
STARLINK-1342 2.7 23:40:15 10° SW 23:43:21 89° ESE 23:46:26 10° NE
STARLINK-1364 2.7 23:40:35 10° SW 23:43:41 90° S 23:46:46 10° NE
STARLINK-1376 2.8 23:40:55 10° SW 23:44:01 89° NW 23:47:07 10° NE
STARLINK-1360 2.8 23:41:16 10° SW 23:44:21 88° NW 23:47:27 10° NE
Cosmos 1833 Rocket 4.0 23:40:23 10° NNE 23:44:28 20° ENE 23:46:18 18° E
STARLINK-1361 2.8 23:41:36 10° SW 23:44:42 87° WNW 23:47:48 10° NE
STARLINK-1367 2.8 23:41:55 10° SW 23:45:00 85° NW 23:48:04 10° NNE
STARLINK-1366 2.8 23:42:15 10° SW 23:45:21 84° NW 23:48:26 10° NNE
Hubble Space Telescope 0.8 23:43:25 10° WNW 23:47:32 72° NNE 23:49:48 25° ESE
Meteor 2-4 Rocket 3.5 23:42:43 10° S 23:48:07 86° E 23:53:27 10° N
Cosmos 2369 Rocket 3.1 23:44:11 10° SSE 23:48:45 25° ESE 23:53:17 10° NE
STARLINK-1088 4.4 23:45:04 10° NNW 23:48:53 37° NE 23:50:38 25° ESE
STARLINK-1338 3.4 23:45:01 10° SSW 23:48:54 59° SE 23:52:48 10° NE
Delta 198 4.3 23:43:48 10° WNW 23:49:35 57° NNE 23:52:46 21° E
Okean 3 3.4 23:46:50 10° S 23:51:07 76° E 23:55:23 10° N
Spelda 30 3.5 23:50:25 10° SW 23:52:29 25° S 23:52:46 24° SSE
STARLINK-1115 4.1 23:49:56 10° NNW 23:53:51 42° NE 23:55:24 29° ESE
YAOGAN 1 3.7 23:49:59 10° S 23:54:04 42° W 23:58:09 10° NNW
CZ-2C R/B 4.0 23:51:05 10° NNE 23:55:29 44° ESE 23:59:31 12° S
